Regional Weather Roundup
Issued by NWS Charleston, SC

Current Version | Previous Version | Graphics & Text | Print | Product List | Glossary On
Versions: 1 2 3 4 5 6 7 8 9 10 11 12 13 14 15 16 17 18 19 20 21 22 23 24 25 26 27 28 29 30 31 32 33 34 35 36 37 38 39 40 41 42 43 44 45 46 47 48 49 50
000 ASUS42 KCHS 290027 RWRCHS REGIONAL WEATHER ROUNDUP NATIONAL WEATHER SERVICE CHARLESTON SC 800 PM EDT TUE MAR 28 2017 NOTE: "FAIR" INDICATES FEW OR NO CLOUDS BELOW 12,000 FEET WITH NO SIGNIFICANT WEATHER AND/OR OBSTRUCTIONS TO VISIBILITY. NOT ALL STATIONS ARE QUALITY CONTROLLED. USE DATA WITH CAUTION... ESPECIALLY DEWPOINT OBSERVATIONS. SCZ027-030-031-034>040-042>050-290100- ...SOUTHEAST SOUTH CAROLINA... CITY SKY/WX TMP DP RH WIND PRES REMARKS N CHARLESTON PTCLDY 67 62 84 S8 29.92R 6HR MIN TEMP: 67; 6HR MAX TEMP: 88; 6HR PCP: 0.01; WATERFRONT PRK N/A 69 64 84 SW7 29.91R JOHNS ISLAND FAIR 68 64 88 S8 29.93S PINOPOLIS N/A 75 63 64 SW7 29.83R MONCKS CORNER FAIR 72 61 68 S6 29.92R SUMMERVILLE FAIR 70 64 83 CALM 29.93R BEAUFORT MCAS PTCLDY 69 69 100 S3 29.93R 6HR MIN TEMP: 69; 6HR MAX TEMP: 88; 6HR PCP: 0.19; BEAUFORT ARPT FAIR 66 64 94 S5 29.94R HILTON HEAD IS CLEAR 70 63 78 VRB7 29.95R WALTERBORO CLEAR 68 66 94 S3 29.93R ALLENDALE FAIR 75 59 57 CALM 29.92R ...SOUTHERN MIDLANDS AND PEE DEE... CITY SKY/WX TMP DP RH WIND PRES REMARKS GEORGETOWN FAIR 68 61 77 SW7 29.93R KINGSTREE FAIR 72 55 56 CALM 29.90R ORANGEBURG CLEAR 77 56 48 W6 29.91R 6HR MIN TEMP: 77; 6HR MAX TEMP: 84; BARNWELL FAIR 75 61 60 CALM 29.92R AIKEN FAIR 72 55 56 SW5 29.96R MANNING FAIR 72 57 60 CALM 29.91R COLUMBIA PTCLDY 78 57 48 SW6 29.89R 6HR MIN TEMP: 77; 6HR MAX TEMP: 85; SUMTER CLEAR 76 58 54 SW6 29.88R 6HR MIN TEMP: 76; 6HR MAX TEMP: 84; FLORENCE CLEAR 77 56 48 W6 29.88R 6HR MIN TEMP: 76; 6HR MAX TEMP: 85; 6HR PCP: TRACE; MYRTLE BEACH PTCLDY 70 61 73 S9 29.90R N MYRTLE BEACH MOCLDY 66 61 84 SW9 29.89R 6HR MIN TEMP: 66; 6HR MAX TEMP: 73; $$ GAZ063-065-086>088-099>101-113>116-118-119-134>141-150-290100- ...SOUTHEAST GEORGIA... CITY SKY/WX TMP DP RH WIND PRES REMARKS SAVANNAH ARPT PTCLDY 78 57 48 W8 29.94R 6HR MIN TEMP: 78; 6HR MAX TEMP: 87; HUNTER AAF PTCLDY 79 62 55 CALM 29.91R 6HR MIN TEMP: 79; 6HR MAX TEMP: 87; FORT STEWART PTCLDY 78 59 53 W5 29.92R 6HR MIN TEMP: 78; 6HR MAX TEMP: 86; 6HR PCP: TRACE; STATESBORO CLEAR 76 63 62 CALM 29.94R SYLVANIA CLEAR N/A N/A N/A CALM 29.94R CLAXTON FAIR N/A N/A N/A CALM 29.95R ...CSRA...CENTRAL AND FAR SOUTHEAST GEORGIA... CITY SKY/WX TMP DP RH WIND PRES REMARKS THOMSON PTCLDY 72 58 61 CALM 29.98R AUGUSTA-BUSH CLEAR 75 60 59 SW3 29.91R 6HR MIN TEMP: 75; 6HR MAX TEMP: 85; AUGUSTA-DANIEL CLEAR 79 56 45 NW3 29.93R SWAINSBORO FAIR 72 61 68 CALM 29.95R VIDALIA PTCLDY 73 63 68 S5 29.95S EASTMAN FAIR 77 47 33 CALM 29.98R HAZLEHURST FAIR 76 61 59 CALM 29.95R ALMA CLEAR 77 61 57 SW7 29.96R 6HR MIN TEMP: 77; 6HR MAX TEMP: 83; WAYCROSS CLEAR 77 65 67 W3 29.97R JESUP FAIR 77 59 53 CALM 29.96R BAXLEY FAIR 77 64 65 SW3 29.96R BRUNSWICK CLEAR 73 66 78 S8 29.97R SAINT SIMONS CLEAR 70 64 81 S10 29.96R 6HR MIN TEMP: 70; 6HR MAX TEMP: 85; $$ SCZ027-028-034-036>038-045-046-048>050-GAZ119-141-290100- ...LAKE AND SUPPLEMENTAL COASTAL OBSERVATIONS... STATION/POSITION TIME TEMP WIND PRES WAVE SWELL AIR SEA DIR/SP/G HT/PER HT/PER/DIR (UTC) (F) (DEG/KT/KT) (MB) (FT/S) (FT/S/D) WINYAH BAY 2330 71 220/ 9 1012.0R LAKE MURRAY 2350 76 270/ 7/ 9 1011.9R ACE BASIN NERRS 2330 70 180/ 1 1013.0S FORT PULASKI 0000 70 66 210/ 7/ 10 1014.1 SAPELO ISLAND 0000 71 170/ 8 1014.0 $$ ANZ835-935-AMZ111-154-330-350-352-354-370-450-454-472-290100- ...C-MAN AND BUOY OBSERVATIONS... STATION/POSITION TIME TEMP WIND PRES WAVE SWELL AIR SEA DIR/SP/G HT/PER HT/PER/DIR (UTC) (F) (DEG/KT/KT) (MB) (FT/S) (FT/S/D) BUOY 41004 2350 72 72 210/ 16/ 17 1012.6R 5/10 5/130/10 BUOY 41008 2350 66 65 180/ 12/ 14 1013.8R 3/11 3/110/11 FOLLY BEACH CMAN 0000 67 200/ 9/ 10 1014.2F CAPERS NEARSHORE 2308 65 260/ 12/ 16 1013.0R FRIPP NEARSHORE 0008 67 64 230/ 6/ 8 1013.6F STATION/POSITION TIME TEMP WIND PRES WAVE SWELL AIR SEA DIR/SP/G HT/PER HT/PER/DIR (UTC) (F) (DEG/KT/KT) (MB) (FT/S) (FT/S/D) 5E ST. MARYS GA 0000 67 N/A 4/10 2/120/11 FRYING PAN BUOY 0010 74 73 220/ 19/ 23 1012.5 BUOY 41025 2350 73 75 230/ 14/ 17 1011.7 4/10 3/120/10 CAPE LOOKOUT NC 0000 67 250/ 10/ 12 1012.4R BUOY 41002 2350 70 73 190/ 10/ 12 1015.7R 6/ 9 5/ 90/ 9 BUOY 41010 NOT AVBL ST AUGUSTINE FL 0000 71 70 170/ 13/ 14 1015.9R $$

USA.gov is the U.S. government's official web portal to all federal, state and local government web resources and services.